Grand Forks AFB, ND

8:22 PM CDT on September 22, 2017 (GMT -0500)
Grand Forks Air Force Base

Weather History for KRDR - February, 2013

Change the Weather History Date:

Sunday, February 17, 2013

  Actual Average Record
Temperature  
Mean Temperature 24 °F -  
Max Temperature 30 °F 22 °F 51 °F (2017)
Min Temperature 17 °F 5 °F -23 °F (2006)
Degree Days  
Heating Degree Days 42    
Moisture  
Dew Point 22 °F    
Average Humidity 87    
Maximum Humidity 93    
Minimum Humidity 79    
Precipitation  
Precipitation 0.00 in - - ()
Sea Level Pressure  
Sea Level Pressure 29.62 in    
Wind  
Wind Speed 16 mph (SSW)    
Max Wind Speed 22 mph    
Max Gust Speed 29 mph    
Visibility 8 miles    
Events Rain , Snow    
Averages and records for this station are not official NWS values.
T = Trace of Precipitation, MM = Missing Value Source: NWS Daily Summary

Daily Weather History Graph

Daily Weather History Graph

Search for Another Location

Airport or City:

Trip Planner

Search our weather history database for the weather conditions in past years. The results will help you decide how hot, cold, wet, or windy it might be!

Date:

Astronomy

Feb. 17, 2013 Rise Set
Actual Time 7:31 AM CST 5:55 PM CST
Civil Twilight 7:00 AM CST 6:27 PM CST
Nautical Twilight 6:24 AM CST 7:03 PM CST
Astronomical Twilight 5:48 AM CST 7:39 PM CST
Moon 10:50 AM CST (2/17) 1:27 AM CST (2/17)
Length of Visible Light 11h 27m
Length of Day
10h 23m
Waxing Crescent, 49% of the Moon is Illuminated
Feb 17
Waxing Crescent
Feb 17
First Quarter
Feb 25
Full
Mar 4
Last Quarter
Mar 11
New

Hourly Weather History & Observations

Time (CST) Temp. Windchill Dew Point Humidity Pressure Visibility Wind Dir Wind Speed Gust Speed Precip Events Conditions
12:33 AM 17.6 °F 1.3 °F 12.2 °F 79% 29.90 in 10.0 mi South 19.6 mph - N/A   Overcast
12:55 AM 17.2 °F 1.7 °F 12.9 °F 83% 29.89 in 10.0 mi South 17.3 mph - N/A   Overcast
1:03 AM 17.6 °F 2.7 °F 12.2 °F 79% 29.89 in 10.0 mi South 16.1 mph - N/A   Overcast
1:14 AM 17.6 °F 1.7 °F 12.2 °F 79% 29.88 in 10.0 mi South 18.4 mph - N/A   Overcast
1:22 AM 17.6 °F 3.2 °F 14.0 °F 86% 29.88 in 10.0 mi South 15.0 mph - N/A   Overcast
1:24 AM 17.6 °F 2.2 °F 14.0 °F 86% 29.88 in 10.0 mi South 17.3 mph - N/A   Overcast
1:41 AM 17.6 °F 2.2 °F 12.2 °F 79% 29.87 in 10.0 mi South 17.3 mph - N/A   Overcast
1:55 AM 17.2 °F 2.7 °F 13.3 °F 84% 29.87 in 10.0 mi South 15.0 mph - N/A   Overcast
2:22 AM 17.6 °F 3.2 °F 14.0 °F 86% 29.86 in 10.0 mi South 15.0 mph - N/A   Overcast
2:55 AM 17.4 °F 2.9 °F 13.5 °F 84% 29.84 in 10.0 mi South 15.0 mph - N/A   Overcast
3:37 AM 17.6 °F 1.3 °F 14.0 °F 86% 29.81 in 10.0 mi South 19.6 mph - N/A   Overcast
3:55 AM 18.1 °F 2.4 °F 15.1 °F 88% 29.80 in 10.0 mi South 18.4 mph - N/A   Overcast
4:51 AM 17.6 °F 3.2 °F 15.8 °F 93% 29.78 in 10.0 mi South 15.0 mph - N/A   Overcast
5:55 AM 17.8 °F 2.4 °F 15.1 °F 89% 29.75 in 10.0 mi South 17.3 mph - N/A   Overcast
6:29 AM 19.4 °F 4.5 °F 15.8 °F 86% 29.72 in 10.0 mi South 17.3 mph - N/A   Overcast
6:34 AM 19.4 °F 4.1 °F 15.8 °F 86% 29.72 in 10.0 mi South 18.4 mph - N/A   Overcast
6:55 AM 19.8 °F 4.5 °F 17.4 °F 91% 29.72 in 10.0 mi South 18.4 mph 24.2 mph N/A   Overcast
7:08 AM 19.4 °F 4.1 °F 17.6 °F 93% 29.71 in 10.0 mi South 18.4 mph - N/A   Overcast
7:55 AM 20.8 °F 6.4 °F 18.3 °F 90% 29.69 in 9.0 mi South 17.3 mph - N/A   Overcast
7:59 AM 21.2 °F 6.0 °F 17.6 °F 86% 29.69 in 9.0 mi South 19.6 mph - N/A Snow Light Snow
8:09 AM 21.2 °F 6.4 °F 17.6 °F 86% 29.68 in 9.0 mi South 18.4 mph - N/A   Overcast
8:23 AM 21.2 °F 6.4 °F 17.6 °F 86% 29.68 in 10.0 mi South 18.4 mph - N/A   Overcast
8:55 AM 20.3 °F 4.8 °F 17.1 °F 87% 29.66 in 10.0 mi South 19.6 mph - 0.00 in   Overcast
9:55 AM 20.5 °F 5.5 °F 16.7 °F 85% 29.64 in 10.0 mi South 18.4 mph - N/A   Overcast
9:58 AM 21.2 °F 6.4 °F 17.6 °F 86% 29.63 in 10.0 mi South 18.4 mph - N/A Snow Light Snow
10:09 AM 21.2 °F 5.6 °F 17.6 °F 86% 29.63 in 10.0 mi South 20.7 mph - N/A   Overcast
10:39 AM 21.2 °F 6.4 °F 17.6 °F 86% 29.61 in 10.0 mi South 18.4 mph - N/A   Overcast
10:55 AM 21.6 °F 6.9 °F 17.6 °F 85% 29.61 in 10.0 mi South 18.4 mph - 0.00 in   Overcast
11:06 AM 23.0 °F 8.0 °F 17.6 °F 80% 29.60 in 10.0 mi South 20.7 mph 28.8 mph N/A   Mostly Cloudy
11:19 AM 23.0 °F 8.7 °F 17.6 °F 80% 29.59 in 10.0 mi South 18.4 mph - N/A   Mostly Cloudy
11:27 AM 23.0 °F 8.7 °F 17.6 °F 80% 29.59 in 10.0 mi South 18.4 mph - N/A   Mostly Cloudy
11:55 AM 23.7 °F 9.7 °F 19.6 °F 84% 29.59 in 10.0 mi South 18.4 mph - N/A   Clear
12:00 PM 24.8 °F 11.1 °F 19.4 °F 80% 29.58 in 10.0 mi South 18.4 mph - N/A   Partly Cloudy
12:10 PM 24.8 °F 11.1 °F 19.4 °F 80% 29.58 in 10.0 mi South 18.4 mph - N/A   Scattered Clouds
12:55 PM 25.9 °F 11.4 °F 21.2 °F 82% 29.54 in 10.0 mi South 21.9 mph - N/A   Scattered Clouds
1:55 PM 27.7 °F 16.6 °F 23.2 °F 83% 29.52 in 10.0 mi South 13.8 mph - N/A   Clear
2:55 PM 30.6 °F 17.9 °F 25.2 °F 80% 29.51 in 10.0 mi SSW 20.7 mph - N/A   Overcast
3:55 PM 30.7 °F 19.2 °F 25.9 °F 82% 29.50 in 10.0 mi SSW 17.3 mph - N/A   Mostly Cloudy
5:46 PM 30.2 °F 18.9 °F 26.6 °F 86% 29.52 in 10.0 mi South 16.1 mph - N/A   Scattered Clouds
5:53 PM 30.2 °F 18.9 °F 26.6 °F 86% 29.52 in 7.0 mi South 16.1 mph - N/A Rain Light Freezing Rain
5:55 PM 29.7 °F 17.8 °F 26.2 °F 87% 29.52 in 8.0 mi SSW 17.3 mph - 0.00 in   Mostly Cloudy
6:24 PM 30.2 °F 20.2 °F 26.6 °F 86% 29.54 in 10.0 mi SSW 12.7 mph - N/A   Scattered Clouds
6:26 PM 30.2 °F 19.8 °F 26.6 °F 86% 29.53 in 10.0 mi SSW 13.8 mph - N/A   Light Freezing Rain
6:32 PM 30.2 °F 20.8 °F 26.6 °F 86% 29.53 in 10.0 mi South 11.5 mph - N/A   Light Freezing Drizzle
6:55 PM 29.3 °F 19.1 °F 26.2 °F 88% 29.54 in 10.0 mi South 12.7 mph - 0.00 in   Light Freezing Drizzle
6:58 PM 28.4 °F 17.0 °F 26.6 °F 93% 29.53 in 10.0 mi South 15.0 mph - N/A   Overcast
7:04 PM 28.4 °F 17.5 °F 26.6 °F 93% 29.53 in 10.0 mi South 13.8 mph - N/A   Overcast
7:39 PM 28.4 °F 18.5 °F 26.6 °F 93% 29.54 in 7.0 mi South 11.5 mph - N/A   Overcast
7:40 PM 28.4 °F 18.5 °F 26.6 °F 93% 29.54 in 6.0 mi South 11.5 mph - N/A   Overcast
7:43 PM 28.4 °F 19.7 °F 26.6 °F 93% 29.54 in 5.0 mi South 9.2 mph - N/A   Overcast
7:54 PM 28.4 °F 18.5 °F 26.6 °F 93% 29.54 in 6.0 mi South 11.5 mph - N/A   Mostly Cloudy
7:55 PM 29.1 °F 19.4 °F 26.2 °F 89% 29.54 in 5.0 mi South 11.5 mph - 0.00 in   Mostly Cloudy
7:56 PM 28.4 °F 19.1 °F 26.6 °F 93% 29.54 in 7.0 mi South 10.4 mph - N/A   Mostly Cloudy
7:58 PM 28.4 °F 18.5 °F 26.6 °F 93% 29.54 in 8.0 mi South 11.5 mph - N/A   Mostly Cloudy
8:03 PM 28.4 °F 19.1 °F 26.6 °F 93% 29.54 in 10.0 mi South 10.4 mph - N/A   Overcast
8:07 PM 28.4 °F 19.1 °F 26.6 °F 93% 29.54 in 10.0 mi SSW 10.4 mph - N/A   Overcast
8:19 PM 30.2 °F 20.8 °F 26.6 °F 86% 29.54 in 7.0 mi SSW 11.5 mph - N/A   Overcast
8:36 PM 30.2 °F 20.2 °F 26.6 °F 86% 29.54 in 7.0 mi SSW 12.7 mph - N/A   Mostly Cloudy
8:47 PM 30.2 °F 19.3 °F 26.6 °F 86% 29.54 in 10.0 mi SSW 15.0 mph - N/A   Overcast
8:55 PM 29.7 °F 18.6 °F 26.8 °F 89% 29.54 in 10.0 mi SSW 15.0 mph - 0.00 in   Overcast
9:11 PM 28.4 °F 18.0 °F 26.6 °F 93% 29.54 in 7.0 mi SSW 12.7 mph - N/A   Overcast
9:17 PM 28.4 °F 18.0 °F 26.6 °F 93% 29.54 in 4.0 mi SSW 12.7 mph - N/A   Overcast
9:19 PM 28.4 °F 18.0 °F 26.6 °F 93% 29.54 in 4.0 mi SSW 12.7 mph - N/A   Overcast
9:26 PM 28.4 °F 18.5 °F 26.6 °F 93% 29.53 in 4.0 mi SSW 11.5 mph - N/A   Overcast
9:38 PM 28.4 °F 19.1 °F 26.6 °F 93% 29.53 in 5.0 mi SSW 10.4 mph - N/A   Overcast
9:55 PM 29.3 °F 20.2 °F 26.6 °F 90% 29.53 in 7.0 mi SSW 10.4 mph - 0.00 in   Overcast
10:16 PM 30.2 °F 22.6 °F 26.6 °F 86% 29.53 in 8.0 mi SW 8.1 mph - N/A   Overcast
10:27 PM 30.2 °F 21.9 °F 26.6 °F 86% 29.53 in 10.0 mi SW 9.2 mph - N/A   Overcast
10:50 PM 30.2 °F 21.9 °F 26.6 °F 86% 29.54 in 10.0 mi SW 9.2 mph - N/A   Overcast
10:55 PM 29.5 °F 21.8 °F 26.4 °F 88% 29.54 in 10.0 mi SW 8.1 mph - 0.00 in   Overcast
11:06 PM 30.2 °F 21.9 °F 26.6 °F 86% 29.55 in 9.0 mi WNW 9.2 mph - N/A   Overcast
11:09 PM 30.2 °F 21.9 °F 26.6 °F 86% 29.55 in 7.0 mi NW 9.2 mph - N/A Snow Light Snow
11:13 PM 28.4 °F 19.1 °F 26.6 °F 93% 29.55 in 6.0 mi NNW 10.4 mph - N/A Snow Light Snow
11:24 PM 26.6 °F 13.8 °F 24.8 °F 93% 29.55 in 4.0 mi North 17.3 mph - N/A Snow Light Snow
11:29 PM 26.6 °F 14.3 °F 24.8 °F 93% 29.55 in 4.0 mi North 16.1 mph - N/A Snow Light Snow
11:41 PM 26.6 °F 14.7 °F 23.0 °F 86% 29.55 in 3.0 mi North 15.0 mph - N/A Snow Light Snow
11:46 PM 26.6 °F 15.2 °F 23.0 °F 86% 29.55 in 2.5 mi North 13.8 mph - N/A Snow Light Snow
11:54 PM 24.8 °F 11.5 °F 23.0 °F 93% 29.55 in 3.0 mi North 17.3 mph - N/A Snow Light Snow
11:55 PM 25.5 °F 13.3 °F 23.4 °F 92% 29.55 in 2.5 mi North 15.0 mph 20.7 mph 0.00 in Snow Light Snow